Location: ?????????
(54.7630°N, 39.4991°E)
Time: 07:57:13
(UTC+00:00)

Cosmos 1459 Rocket - Pass Details

Date: 14 April 2026
Orbit: 935 x 999 km, 83.0° (Epoch: 9 May)

Event Time Altitude Azimuth Distance (km) Brightness Sun altitude
Exits shadow 20:12:01 41° 119° (ESE) 1,410 4.5 -23.9°
Maximum altitude 20:13:13 46° 90° (E) 1,324 4.5 -24.0°
Drops below altitude 10° 20:19:12 10° 19° (NNE) 2,763 7.1 -24.2°
Sets 20:21:48 0° 14° (NNE) 3,708 8.0 -24.4°
